Location: Ashtead
(51.3000°N, 0.3000°W)
Time: 01:06:20
(UTC+00:00)

GP-B - Pass Details

Date: 28 April 2024
Orbit: 624 x 629 km, 89.8° (Epoch: 29 May)

Event Time Altitude Azimuth Distance (km) Brightness Sun altitude
Rises 00:21:33 0° 16° (NNE) 2,929 7.9 -24.3°
Reaches altitude 10° 00:24:51 10° 42° (NE) 2,014 6.4 -24.2°
Maximum altitude 00:27:08 14° 74° (ENE) 1,769 5.6 -24.2°
Enters shadow 00:29:09 11° 102° (ESE) 1,958 5.6 -24.1°
